STARLINK-2471 (48129 NORAD) Tracking and Keplerian Element Data

This shows tracking and keplerian element data for the satellite.

Feedback or suggestion? Click here.




ElementValue
Catalog48129
NameSTARLINK-2471
Epoch Orbit195
Epoch Day170.58334491
Epoch Year2021
RAAN351.4182
Inclination53.0521
Eccentricity0.0001437
Argument of Perigee96.1202
Mean Anonmoly298.8479
Mean Motion15.06578294
Decay Rate-0.00271618
L11 48129U 21027AP 21170.58334491 -.00271618 00000-0 -18832-1 0 9994
L22 48129 53.0521 351.4182 0001437 96.1202 298.8479 15.06578294 1950

Live tracking and technical data element details for STARLINK-2471 (NORAD 48129). STARLINK-2471 can be tracked NOW for your location showing map with azimuth and elevation plus other details from your city location.

Track the satellite on the map from your city or location and see movement details for azimuth, elevation, latitude, longitude, range, height, and movement on the map or in text.







IsCatalogInMostPopularTable: catalog: 48129, numindb: 36
Update: records affected: 1



GetName: 48129 STARLINK-2471

Hit Count: updated at: Mon, 21 Jun 2021 03:54:07 GMT